sat.trackr.live / text

‹ back to catalog

STARLINK-36827

NORAD 67908 · 2026-036E

PAYLOAD ACTIVE UNKNOWN

§ Identity

Operator
Country
US
Launch date
2026-02-22
Launch site
AFETR
Launch vehicle
Mass (kg)
RCS (m²)

Purposes: comms

External: N2YO · Heavens-Above · Gunter

§ Orbital elements

Epoch: 2026-05-24T11:58:44.456160Z

Period
94.27 min
Inclination
43.0010°
Eccentricity
0.0001759
Mean motion
15.27588501 rev/d
Perigee alt
481.8 km
Apogee alt
484.2 km
Semi-major
6,861.2 km
B*
5.3259e-4
RAAN
177.3509°
Arg perigee
273.8532°
Mean anomaly
86.2119°
Rev number
1,531

§ Raw data

STARLINK-368271 67908U 26036E   26144.49912565  .00014426  00000+0  53259-3 0  99982 67908  43.0010 177.3509 0001759 273.8532  86.2119 15.27588501 15313

JSON: /api/v1/satellites/67908 · /tle

For live sub-satellite position, see the globe view (requires WebGL).

§ Visibility from observer

Set your observer location to see the next 7 days of passes ≥ 10°. The values pass through the URL so the page stays shareable.

No JS? Fill the form by hand. The geolocation button needs JavaScript.